Location: *
(46.1333°S, 161.2167°W)
Time: 04:16:28
(UTC+00:00)

Cosmos 2369 - Pass Details

Date: 15 July 2020
Orbit: 838 x 857 km, 71.0° (Epoch: 10 August)

Event Time Altitude Azimuth Distance (km) Brightness Sun altitude
Exits shadow 15:38:43 66° 189° (S) 939 3.8 -27.6°
Drops below altitude 10° 15:43:46 10° 156° (SSE) 2,503 6.4 -26.7°
Sets 15:46:15 0° 154° (SSE) 3,442 7.1 -26.3°
